Regional Weather Roundup
Issued by NWS

Home | Current Version | Previous Version | Text Only | Print | Product List | Glossary Off
Versions: 1 2 3 4 5 6 7 8 9 10 11 12 13 14 15 16 17 18 19 20 21 22 23 24 25 26 27 28 29 30 31 32 33 34 35 36 37 38 39 40 41 42 43 44 45 46 47 48 49 50

000
ASUS43 KOAX 191510
RWRNE

WEATHER ROUNDUP FOR NEBRASKA
NATIONAL WEATHER SERVICE OMAHA NE
900 AM CST MON FEB 19 2018

NOTES: SATELLITE DATA IS BEING USED TO AUGMENT CLOUD COVER ABOVE
       12000 FEET.
       "FAIR" INDICATES FEW OR NO CLOUDS BELOW 12,000 FEET WITH NO
       SIGNIFICANT WEATHER AND/OR OBSTRUCTIONS TO VISIBILITY.


NEZ001>004-019>022-054>056-191600-
NEBRASKA PANHANDLE

CITY           SKY/WX    TMP DP  RH WIND       PRES   REMARKS
SCOTTSBLUFF    LGT SNOW   6   0  76 N9        29.87R WCI  -8
ALLIANCE       LGT SNOW   4   0  83 N17       29.85R FOG     WCI -16
CHADRON        LGT SNOW   2  -2  83 N9        29.98R FOG     WCI -13
GORDON         LGT SNOW   4  -2  76 N15       29.90R VSB 1   WCI -14
KIMBALL        LGT SNOW   6   2  84 N9        29.76R WCI  -8
SIDNEY         LGT SNOW   7   3  84 N15       29.80R FOG     WCI -10
$$

NEZ057>060-069>072-079>082-191600-
SOUTHWEST NEBRASKA

CITY           SKY/WX    TMP DP  RH WIND       PRES   REMARKS
NORTH PLATTE   LGT SNOW  12   6  77 N16       29.87R WCI  -5
IMPERIAL       FLURRIES  13   9  84 N16       29.84R WCI  -3
LEXINGTON      FLURRIES  16  11  80 N15       29.87R WCI   1
MCCOOK         CLOUDY    16  11  80 N14       29.86R HAZE    WCI   2
OGALLALA       CLOUDY    12   8  82 N16       29.86R WCI  -4
$$

NEZ005>010-023>029-035>040-094-191600-
NORTH CENTRAL NEBRASKA

CITY           SKY/WX    TMP DP  RH WIND       PRES   REMARKS
VALENTINE      LGT SNOW   8   1  73 N15       29.96R WCI  -9
AINSWORTH      LGT SNOW   8   5  87 N21       29.92R WCI -12
BROKEN BOW     FLURRIES  13   7  77 N23G30    29.84R WCI  -6
O`NEILL        LGT SNOW  11   8  88 N16G22    29.90R WCI  -5
ORD            LGT SNOW  13   9  84 N18G30    29.86R FOG     WCI  -4
THEDFORD       CLOUDY     9   5  83 N12G22    29.88S WCI  -6
$$

NEZ041-046>049-061>064-073>077-083>087-191600-
SOUTH CENTRAL NEBRASKA

CITY           SKY/WX    TMP DP  RH WIND       PRES   REMARKS
GRAND ISLAND   FLURRIES  16  12  84 N22       29.83S WCI  -2
AURORA         CLOUDY    17  13  86 N17G24    29.82S WCI   1
HASTINGS       CLOUDY    16  12  84 N21G31    29.83R WCI  -1
HEBRON         CLOUDY    21  18  88 N15G24    29.83R WCI   7
HOLDREGE       FLURRIES  15  13  90 N16G23    29.84R WCI   0
KEARNEY        FLURRIES  15  11  83 N16G22    29.85R WCI  -1
YORK           CLOUDY    18  18 100 N16G29    29.81R WCI   3
$$

NEZ011>018-030>034-042>045-191600-
NORTHEAST NEBRASKA

CITY           SKY/WX    TMP DP  RH WIND       PRES   REMARKS
NORFOLK        FRZ RAIN  17  15  92 N15G25    29.83S FOG     WCI   2
ALBION         LGT SNOW  15  11  85 N14G23    29.84F WCI   0
BLAIR          CLOUDY    23  22  95 N13       29.76R FOG     WCI  11
COLUMBUS       CLOUDY    19  16  88 N18       29.84S WCI   4
FREMONT        CLOUDY    22  20  94 N10G23    29.81S WCI  11
TEKAMAH        CLOUDY    21  19  92 N26G32    29.81S FOG     WCI   4
WAYNE          CLOUDY    18  17  96 N16G23    29.84F WCI   3
$$

NEZ050>053-065>068-078-088>093-191600-
SOUTHEAST NEBRASKA

CITY           SKY/WX    TMP DP  RH WIND       PRES   REMARKS
LINCOLN        FLURRIES  23  19  85 N23G33    29.81R WCI   7
OMAHA EPPLEY   CLOUDY    26  23  88 N21G28    29.77R FOG     WCI  12
BEATRICE       CLOUDY    25  24  95 N18       29.79R FOG     WCI  12
FALLS CITY     CLOUDY    30  28  92 NW20G29   29.73R FOG     WCI  17
NEBRASKA CITY  CLOUDY    28  28 100 N14G24    29.75R FOG     WCI  17
PLATTSMOUTH    CLOUDY    27  26  99 NW14      29.76R FOG     WCI  15
$$

NEZ044-045-051>053-067-191600-
OMAHA AREA

CITY           SKY/WX    TMP DP  RH WIND       PRES   REMARKS
OMAHA EPPLEY   CLOUDY    26  23  88 N21G28    29.77R FOG     WCI  12
BLAIR          CLOUDY    23  22  95 N13       29.76R FOG     WCI  11
FREMONT        CLOUDY    22  20  94 N10G23    29.81S WCI  11
MILLARD        CLOUDY    25  23  90 NW15      29.79R WCI  13
OFFUTT AFB     CLOUDY    26  24  92 N14G21    29.77R WCI  15
PLATTSMOUTH    CLOUDY    27  26  99 NW14      29.76R FOG     WCI  15
WAHOO          CLOUDY    23  20  90 MISG      29.80R
$$




USA.gov is the U.S. government's official web portal to all federal, state and local government web resources and services.